Location: Amon Carter Post Office
(32.8281°N, 97.0484°W)
Time: 06:57:55
(UTC+00:00)

CZ-2C R/B - Pass Details

Date: 29 June 2022
Orbit: 783 x 871 km, 98.2° (Epoch: 11 August)

Event Time Altitude Azimuth Distance (km) Brightness Sun altitude
Rises 09:36:44 0° 118° (ESE) 3,394 6.1 -18.7°
Reaches altitude 10° 09:40:14 10° 95° (E) 2,480 5.7 -18.2°
Maximum altitude 09:43:01 14° 64° (ENE) 2,203 5.9 -17.7°
Drops below altitude 10° 09:45:49 10° 34° (NNE) 2,507 6.4 -17.3°
Sets 09:49:22 0° 11° (N) 3,457 6.8 -16.8°
